GW4020 Weather Reports


time (UTC)temp
C
wind
direction
speed
KPH
gust
KPH
rain 1hr
cm
rain 24hr
cm
rain mn
cm
humidity
%
barometer
mb
20260507061233 5 304 3.2 3.2 0.00 0.00 0.00 94 1011.6
20260507060731 5 341 3.2 4.8 0.00 0.00 0.00 95 1011.6
20260507060227 5 324 3.2 3.2 0.00 0.00 0.00 97 1011.7
20260507055723 5 264 3.2 3.2 0.00 0.00 0.00 99 1011.5
20260507055219 5 282 4.8 4.8 0.00 0.00 0.00 99 1011.3
20260507054715 5 315 1.6 1.6 0.00 0.00 0.00 99 1011.3
20260507054213 5 294 3.2 3.2 0.00 0.00 0.00 99 1011.2
20260507053710 5 313 1.6 3.2 0.00 0.00 0.00 99 1011.1
20260507053208 5 289 3.2 3.2 0.00 0.00 0.00 99 1011.2
20260507052706 5 335 1.6 3.2 0.00 0.00 0.00 99 1011.4
20260507052202 5 319 3.2 4.8 0.00 0.00 0.00 99 1011.3
20260507051700 5 331 6.4 6.4 0.00 0.00 0.00 99 1011.1
20260507051156 5 326 0.0 0.0 0.00 0.00 0.00 99 1011.1
20260507050653 5 333 1.6 1.6 0.00 0.00 0.00 99 1011.3
20260507050150 5 333 1.6 3.2 0.00 0.00 0.00 99 1011.3
20260507045647 5 328 0.0 0.0 0.00 0.00 0.00 99 1011.0
20260507045143 5 334 1.6 1.6 0.00 0.00 0.00 99 1011.1
20260507044640 5 335 1.6 1.6 0.00 0.00 0.00 99 1011.3
20260507044137 5 334 0.0 0.0 0.00 0.00 0.00 99 1011.4
20260507043633 5 335 0.0 0.0 0.00 0.00 0.00 99 1011.1
20260507043130 5 335 0.0 0.0 0.00 0.00 0.00 99 1011.2
20260507042626 5 335 0.0 0.0 0.00 0.00 0.00 99 1011.3
20260507042121 5 338 0.0 0.0 0.00 0.00 0.00 99 1011.2
20260507041618 5 338 0.0 0.0 0.00 0.00 0.00 99 1011.2
20260507041115 5 341 1.6 1.6 0.00 0.00 0.00 99 1011.3
20260507040613 5 329 0.0 0.0 0.00 0.00 0.00 99 1011.3
20260507040109 5 329 0.0 0.0 0.00 0.00 0.00 99 1011.3
20260507035604 5 329 0.0 0.0 0.00 1.27 1.27 99 1011.4
20260507035100 5 347 0.0 0.0 0.00 1.27 1.27 99 1011.7
20260507034557 5 347 0.0 0.0 0.00 1.27 1.27 99 1011.5
20260507034055 5 347 0.0 0.0 0.00 1.27 1.27 99 1011.5
20260507033553 5 347 0.0 0.0 0.00 1.27 1.27 99 1011.5
20260507033050 5 347 0.0 0.0 0.00 1.27 1.27 99 1011.3
20260507032547 5 347 0.0 0.0 0.00 1.27 1.27 99 1011.4
20260507032043 5 347 0.0 0.0 0.00 1.27 1.27 99 1011.2
20260507031540 5 347 0.0 0.0 0.00 1.27 1.27 99 1011.4
20260507031037 5 347 0.0 0.0 0.00 1.27 1.27 99 1011.2
20260507030534 5 347 0.0 0.0 0.00 1.27 1.27 99 1011.2
20260507030032 5 347 0.0 0.0 0.00 1.27 1.27 99 1011.1
20260507025528 5 347 0.0 0.0 0.00 1.27 1.27 99 1011.0
20260507025026 5 347 0.0 0.0 0.00 1.27 1.27 99 1011.2
20260507024523 5 347 0.0 0.0 0.00 1.27 1.27 99 1011.5
20260507024020 5 347 0.0 0.0 0.00 1.27 1.27 99 1011.7
20260507023516 5 347 0.0 0.0 0.00 1.27 1.27 99 1011.4
20260507023014 5 347 0.0 0.0 0.00 1.27 1.27 99 1011.6
20260507022510 6 347 0.0 0.0 0.00 1.27 1.27 99 1011.5
20260507022000 6 348 0.0 0.0 0.00 1.27 1.27 99 1011.7
20260507021456 6 348 0.0 0.0 0.00 1.27 1.27 99 1011.2
20260507020953 6 348 0.0 0.0 0.00 1.27 1.27 99 1011.4
20260507020450 6 348 0.0 0.0 0.00 1.27 1.27 99 1011.8
20260507015947 6 348 0.0 0.0 0.00 1.27 1.27 99 1012.0
20260507015446 6 347 0.0 0.0 0.00 1.27 1.27 98 1012.1
20260507014942 6 348 0.0 0.0 0.00 1.27 1.27 98 1011.5
20260507014439 6 348 0.0 0.0 0.00 1.27 1.27 98 1011.8
20260507013935 6 348 0.0 0.0 0.00 1.27 1.27 98 1012.1
20260507013432 6 348 0.0 0.0 0.00 1.27 1.27 98 1012.1
20260507012929 6 348 0.0 0.0 0.00 1.27 1.27 98 1012.2
20260507012426 6 348 0.0 0.0 0.00 1.27 1.27 98 1011.9
20260507011922 6 348 0.0 0.0 0.00 1.27 1.27 98 1011.8
20260507011419 6 348 0.0 0.0 0.00 1.27 1.27 98 1012.0
20260507010914 6 348 0.0 0.0 0.00 1.27 1.27 98 1011.8
20260507010409 6 348 0.0 0.0 0.00 1.27 1.27 98 1011.7
20260507005907 6 348 0.0 0.0 0.00 1.27 1.27 98 1011.7
20260507005403 6 348 0.0 0.0 0.00 1.27 1.27 97 1011.6
20260507004900 6 348 0.0 0.0 0.00 1.27 1.27 97 1011.3
20260507004357 6 348 1.6 1.6 0.00 1.27 1.27 97 1011.7
20260507003854 6 332 0.0 1.6 0.00 1.27 1.27 97 1011.7
20260507003349 6 343 1.6 3.2 0.00 1.27 1.27 97 1011.7
20260507002845 6 349 0.0 0.0 0.00 1.27 1.27 97 1011.2
20260507002341 6 334 0.0 1.6 0.00 1.27 1.27 96 1011.4
20260507001838 6 304 3.2 3.2 0.00 1.27 1.27 96 1011.3
20260507001335 6 345 1.6 1.6 0.00 1.27 1.27 97 1011.2
20260507000832 6 342 0.0 1.6 0.00 1.27 1.27 97 1011.0
20260507000328 6 320 3.2 4.8 0.00 1.27 1.27 97 1010.9
20260506235824 6 330 1.6 1.6 0.00 1.27 1.27 97 1010.8
20260506235320 6 15 0.0 1.6 0.00 1.27 1.27 97 1010.7
20260506234817 6 344 1.6 1.6 0.00 1.27 1.27 97 1010.8
20260506234315 6 55 0.0 1.6 0.00 1.27 1.27 97 1010.7
20260506233812 6 331 3.2 3.2 0.00 1.27 1.27 97 1010.7
20260506233308 6 307 1.6 3.2 0.00 1.27 1.27 98 1010.8
20260506232805 6 5 0.0 0.0 0.00 1.27 1.27 98 1010.7
20260506232300 6 357 0.0 0.0 0.00 1.27 1.27 98 1010.6
20260506231757 6 336 0.0 0.0 0.00 1.27 1.27 98 1010.4
20260506231255 6 267 3.2 4.8 0.00 1.27 1.27 98 1010.7
20260506230752 6 346 0.0 0.0 0.00 1.27 1.27 98 1010.7
20260506230249 6 303 6.4 6.4 0.00 1.27 1.27 98 1010.6
20260506225745 6 342 8.0 9.7 0.00 1.27 1.27 98 1010.7
20260506225242 6 7 0.0 0.0 0.00 1.27 1.27 99 1010.8
20260506224738 6 353 1.6 1.6 0.00 1.27 1.27 99 1010.8
20260506224236 6 287 4.8 4.8 0.00 1.27 1.27 99 1010.4
20260506223732 6 33 1.6 1.6 0.00 1.27 1.27 99 1010.6
20260506223227 6 280 8.0 11.3 0.00 1.27 1.27 99 1010.6
20260506222725 6 293 4.8 4.8 0.00 1.27 1.27 99 1010.4
20260506222220 7 270 6.4 6.4 0.00 1.27 1.27 98 1010.1
20260506221718 7 338 1.6 1.6 0.00 1.27 1.27 98 1010.1
20260506221216 7 342 8.0 11.3 0.00 1.27 1.27 98 1010.2
20260506220713 7 283 3.2 3.2 0.00 1.27 1.27 98 1010.0
20260506220208 7 299 3.2 3.2 0.00 1.27 1.27 98 1009.9
20260506215705 7 19 3.2 6.4 0.00 1.27 1.27 98 1009.9
20260506215200 7 345 1.6 3.2 0.00 1.27 1.27 97 1009.8
20260506214657 7 345 1.6 3.2 0.00 1.27 1.27 97 1009.7
20260506214154 7 331 1.6 1.6 0.00 1.27 1.27 97 1009.5
20260506213653 7 343 1.6 3.2 0.18 1.27 1.27 97 1009.5
20260506213150 7 347 4.8 6.4 0.18 1.27 1.27 97 1009.5
20260506212647 7 350 0.0 0.0 0.00 1.24 1.24 97 1009.3
20260506212141 7 317 4.8 4.8 0.13 1.24 1.24 97 1009.5
20260506211638 7 31 4.8 4.8 0.13 1.24 1.24 97 1009.4
20260506211134 7 336 1.6 1.6 0.00 1.22 1.22 97 1009.3
20260506210627 7 327 8.0 11.3 0.00 1.22 1.22 97 1009.2
20260506210123 8 314 4.8 6.4 0.00 1.22 1.22 97 1008.9
20260506205619 8 344 6.4 6.4 0.00 1.22 1.22 97 1008.9
20260506205114 8 325 6.4 9.7 0.00 1.22 1.22 97 1008.7
20260506204613 8 304 8.0 11.3 0.00 1.22 1.22 97 1008.4
20260506204109 8 342 4.8 6.4 0.00 1.22 1.22 97 1008.4
20260506203608 8 336 0.0 1.6 0.00 1.22 1.22 97 1008.3
20260506203104 8 336 3.2 4.8 0.00 1.22 1.22 97 1008.2
20260506202602 8 352 0.0 0.0 0.18 1.22 1.22 97 1007.9
20260506202058 8 330 1.6 1.6 0.18 1.22 1.22 97 1008.0
20260506201555 8 337 6.4 9.7 0.30 1.22 1.22 97 1007.8
20260506201052 9 315 3.2 4.8 0.30 1.19 1.19 97 1007.7
20260506200548 9 305 3.2 4.8 0.30 1.17 1.17 97 1007.6
20260506200045 10 265 4.8 4.8 0.30 1.14 1.14 96 1007.7
20260506195541 10 334 9.7 14.5 0.18 1.12 1.12 96 1007.5
20260506195038 13 334 22.5 27.4 0.18 1.09 1.09 96 1007.4
20260506194536 13 328 4.8 4.8 0.18 1.09 1.09 98 1007.2
20260506194032 13 345 4.8 6.4 0.00 1.07 1.07 97 1007.0
20260506193530 13 323 1.6 1.6 0.00 1.07 1.07 97 1007.2
20260506193027 13 336 1.6 3.2 0.00 1.07 1.07 97 1007.0
20260506192523 13 327 1.6 1.6 0.00 1.07 1.07 96 1007.1
20260506192019 13 338 1.6 3.2 0.00 1.07 1.07 96 1007.3
20260506191516 13 349 3.2 3.2 0.00 1.07 1.07 95 1007.3
20260506191012 13 202 3.2 4.8 0.00 1.07 1.07 95 1007.2
20260506190510 13 340 3.2 3.2 0.00 1.07 1.07 95 1007.0
20260506190007 13 314 3.2 3.2 0.00 1.07 1.07 95 1007.0
20260506185504 13 342 4.8 4.8 0.00 1.07 1.07 95 1007.1
20260506185000 13 198 3.2 4.8 0.00 1.07 1.07 95 1007.1
20260506184457 13 226 1.6 1.6 0.00 1.07 1.07 95 1007.1
20260506183954 13 339 1.6 3.2 0.00 1.07 1.07 95 1007.3
20260506183450 13 269 3.2 3.2 0.00 1.07 1.07 95 1007.2
20260506182947 13 277 3.2 4.8 0.00 1.07 1.07 96 1007.3
20260506182444 13 345 1.6 3.2 0.00 1.07 1.07 96 1007.2
20260506181941 13 358 1.6 3.2 0.00 1.07 1.07 96 1007.2
20260506181439 13 287 1.6 3.2 0.00 1.07 1.07 96 1007.1
20260506180935 13 335 0.0 1.6 0.00 1.07 1.07 96 1007.5
20260506180432 13 322 1.6 3.2 0.00 1.07 1.07 97 1007.3
20260506175929 13 330 0.0 0.0 0.00 1.07 1.07 97 1007.1
20260506175425 13 354 3.2 4.8 0.00 1.07 1.07 96 1007.2
20260506174922 13 315 1.6 3.2 0.00 1.07 1.07 96 1007.3
20260506174420 13 347 1.6 3.2 0.00 1.07 1.07 97 1007.1
20260506173917 13 335 1.6 1.6 0.00 1.07 1.07 96 1007.3
20260506173414 13 353 3.2 3.2 0.00 1.07 1.07 96 1007.3
20260506172911 13 332 0.0 0.0 0.00 1.07 1.07 97 1007.2
20260506172407 13 296 4.8 4.8 0.00 1.07 1.07 97 1007.4
20260506171905 13 247 6.4 11.3 0.00 1.07 1.07 97 1007.3
20260506171402 13 27 3.2 4.8 0.00 1.07 1.07 97 1007.4
20260506170900 13 330 0.0 1.6 0.00 1.07 1.07 97 1007.2
20260506170355 13 306 3.2 3.2 0.00 1.07 1.07 98 1007.2
20260506165849 13 10 0.0 0.0 0.00 1.07 1.07 98 1007.2
20260506165346 13 323 3.2 3.2 0.00 1.07 1.07 98 1007.3
20260506164842 13 14 0.0 1.6 0.00 1.07 1.07 97 1007.3
20260506164339 13 341 0.0 0.0 0.00 1.07 1.07 98 1007.2
20260506163837 13 349 0.0 1.6 0.13 1.07 1.07 97 1007.3
20260506163331 13 338 0.0 0.0 0.30 1.07 1.07 97 1007.4
20260506162827 12 321 1.6 1.6 0.30 1.04 1.04 97 1007.3
20260506162325 12 275 4.8 6.4 0.30 1.02 1.02 97 1007.4
20260506161817 12 351 1.6 1.6 0.30 1.02 1.02 97 1007.6
20260506161314 12 340 0.0 1.6 0.00 0.97 0.97 97 1007.6
20260506160811 12 331 1.6 3.2 0.00 0.97 0.97 97 1007.4
20260506160308 12 13 1.6 1.6 0.00 0.97 0.97 97 1007.6
20260506155807 12 348 1.6 3.2 0.00 0.97 0.97 96 1007.5
20260506155306 12 7 1.6 3.2 0.00 0.97 0.97 96 1007.4
20260506153415 12 3 0.0 0.0 0.00 0.94 0.94 96 1007.4
20260506152913 12 106 3.2 4.8 0.00 0.94 0.94 96 1007.4
20260506152409 12 349 3.2 3.2 0.18 0.94 0.94 96 1007.4
20260506151908 12 11 1.6 1.6 0.30 0.94 0.94 96 1007.3
20260506151404 12 291 3.2 3.2 0.30 0.91 0.91 96 1007.5
20260506150902 12 290 3.2 3.2 0.30 0.89 0.89 96 1007.6
20260506150358 12 347 0.0 0.0 0.13 0.86 0.86 96 1007.6
20260506145855 12 346 0.0 1.6 0.18 0.84 0.84 96 1007.6
20260506145351 12 351 1.6 3.2 0.18 0.84 0.84 96 1007.7
20260506144849 12 324 3.2 3.2 0.30 0.84 0.84 96 1007.5
20260506144345 12 14 0.0 1.6 0.30 0.81 0.81 96 1007.4
20260506143844 12 5 0.0 0.0 0.18 0.79 0.79 96 1007.4
20260506143340 12 283 3.2 3.2 0.00 0.76 0.76 96 1007.6
20260506142839 12 280 4.8 4.8 0.00 0.76 0.76 95 1007.5
20260506142336 12 334 0.0 1.6 0.18 0.76 0.76 95 1007.4
20260506141834 12 348 1.6 1.6 0.18 0.76 0.76 95 1007.4
20260506141332 12 326 3.2 4.8 0.00 0.74 0.74 95 1007.4
20260506140830 12 331 3.2 3.2 0.00 0.74 0.74 95 1007.6
20260506140327 12 289 3.2 4.8 0.00 0.74 0.74 95 1007.6
20260506135824 12 1 1.6 3.2 0.13 0.74 0.74 95 1007.6
20260506135320 12 250 9.7 12.9 0.13 0.74 0.74 95 1007.4
20260506134817 12 320 3.2 3.2 0.00 0.71 0.71 95 1007.3
20260506134313 12 328 4.8 4.8 0.00 0.71 0.71 94 1007.2
20260506133810 12 16 1.6 1.6 0.30 0.71 0.71 94 1007.1
20260506133307 12 10 0.0 0.0 0.48 0.71 0.71 94 1007.2
20260506132804 12 350 3.2 4.8 0.30 0.66 0.66 95 1007.4
20260506132301 12 339 0.0 1.6 0.30 0.66 0.66 95 1007.5
20260506131759 12 356 1.6 3.2 0.30 0.64 0.64 96 1007.5
20260506131254 12 19 1.6 1.6 0.18 0.61 0.61 96 1007.7
20260506130752 12 32 0.0 0.0 0.13 0.58 0.58 96 1007.9
20260506130248 12 341 3.2 3.2 0.13 0.58 0.58 97 1008.1
20260506125747 12 350 1.6 1.6 0.18 0.56 0.56 97 1008.2
20260506125244 12 24 1.6 1.6 0.30 0.56 0.56 98 1008.4
20260506124743 12 345 0.0 1.6 0.30 0.53 0.53 98 1008.3
20260506124240 11 322 1.6 3.2 0.30 0.51 0.51 98 1008.3
20260506123737 11 345 0.0 1.6 0.30 0.48 0.48 99 1008.4
20260506123236 11 340 0.0 0.0 0.36 0.46 0.46 99 1008.3
20260506122732 11 354 0.0 0.0 0.18 0.43 0.43 99 1008.3
20260506122229 11 339 0.0 0.0 0.00 0.41 0.41 98 1008.2
20260506121728 11 339 0.0 0.0 0.13 0.41 0.41 98 1008.2
20260506121224 11 339 0.0 0.0 0.30 0.41 0.41 98 1008.1
20260506120722 11 339 0.0 0.0 0.18 0.38 0.38 98 1008.0
20260506120219 11 339 0.0 0.0 0.13 0.36 0.36 98 1007.9
20260506115717 11 339 0.0 0.0 0.13 0.36 0.36 98 1008.1
20260506115215 11 339 0.0 0.0 0.18 0.33 0.33 98 1008.0
20260506114712 11 339 0.0 0.0 0.18 0.33 0.33 98 1008.0
20260506114209 11 339 0.0 0.0 0.13 0.30 0.30 98 1008.1
20260506113708 11 339 0.0 0.0 0.30 0.30 0.30 98 1008.1
20260506113205 11 339 0.0 0.0 0.30 0.28 0.28 98 1008.2
20260506112701 11 339 0.0 0.0 0.13 0.25 0.25 98 1008.1
20260506112159 11 339 0.0 0.0 0.30 0.25 0.25 98 1008.1
20260506111656 11 339 0.0 0.0 0.18 0.23 0.23 98 1008.1
20260506111154 11 339 0.0 0.0 0.13 0.20 0.20 98 1008.3
20260506110651 11 339 0.0 0.0 0.13 0.20 0.20 98 1008.2
20260506110148 11 339 0.0 0.0 0.00 0.18 0.18 98 1008.0
20260506105645 11 339 0.0 0.0 0.18 0.18 0.18 97 1008.1
20260506105141 11 339 0.0 0.0 0.36 0.18 0.18 97 1008.1
20260506104640 11 339 0.0 0.0 0.18 0.15 0.15 97 1008.1
20260506104137 11 339 0.0 0.0 0.30 0.15 0.15 97 1008.1
20260506103634 11 339 0.0 0.0 0.13 0.13 0.13 97 1008.3
20260506103131 11 339 0.0 0.0 0.18 0.10 0.10 97 1008.3
20260506102629 11 339 0.0 0.0 0.18 0.10 0.10 96 1008.0
20260506102126 11 339 0.0 0.0 0.13 0.08 0.08 96 1008.1
20260506101623 11 339 0.0 0.0 0.13 0.08 0.08 96 1008.1
20260506101119 11 339 0.0 0.0 0.18 0.05 0.05 96 1008.0
20260506100618 11 339 0.0 0.0 0.18 0.05 0.05 95 1008.0
20260506100116 11 339 0.0 0.0 0.00 0.03 0.03 95 1008.0
20260506095615 11 339 0.0 0.0 0.00 0.03 0.03 95 1008.2
20260506095111 11 339 0.0 0.0 0.00 0.03 0.03 94 1008.0
20260506094608 11 339 0.0 0.0 0.00 0.03 0.03 94 1007.8
20260506094106 11 339 0.0 0.0 0.13 0.03 0.03 93 1007.9
20260506093604 11 339 0.0 0.0 0.13 0.03 0.03 92 1007.8
20260506093101 11 339 0.0 0.0 0.00 0.00 0.00 91 1007.8
20260506092559 12 338 0.0 0.0 0.00 0.00 0.00 90 1008.0
20260506092055 12 339 0.0 0.0 0.00 0.00 0.00 88 1008.0
20260506091554 12 339 0.0 0.0 0.00 0.00 0.00 87 1007.9
20260506091051 12 339 0.0 0.0 0.00 0.00 0.00 85 1007.9
20260506090549 12 339 0.0 0.0 0.00 0.00 0.00 81 1007.9
20260506090044 13 340 0.0 0.0 0.00 0.00 0.00 80 1007.8
20260506085542 13 343 0.0 0.0 0.00 0.00 0.00 78 1007.7
20260506085038 13 344 0.0 0.0 0.00 0.00 0.00 78 1007.8
20260506084535 13 344 0.0 0.0 0.00 0.00 0.00 79 1008.0
20260506084031 13 344 0.0 0.0 0.00 0.00 0.00 78 1008.2
20260506083529 13 343 0.0 0.0 0.00 0.00 0.00 79 1008.2
20260506083026 13 349 0.0 0.0 0.00 0.00 0.00 78 1008.0
20260506082523 13 351 0.0 0.0 0.00 0.00 0.00 76 1008.2
20260506082018 14 351 0.0 0.0 0.00 0.00 0.00 72 1008.2
20260506081517 15 342 0.0 0.0 0.00 0.00 0.00 69 1008.3
20260506081014 15 315 1.6 3.2 0.00 0.00 0.00 64 1008.3
20260506080511 15 359 0.0 0.0 0.00 0.00 0.00 61 1008.3
20260506073455 15 343 0.0 1.6 0.00 0.00 0.00 61 1007.9
20260506072952 15 343 0.0 0.0 0.00 0.00 0.00 62 1008.0
20260506072449 16 347 0.0 0.0 0.00 0.00 0.00 62 1007.9
20260506071947 15 356 0.0 1.6 0.00 0.00 0.00 59 1008.1
20260506071444 16 309 1.6 1.6 0.00 0.00 0.00 60 1007.9
20260506070941 16 6 0.0 0.0 0.00 0.00 0.00 62 1008.0
20260506070438 16 55 1.6 3.2 0.00 0.00 0.00 60 1007.9
20260506062416 13 357 0.0 0.0 0.00 0.00 0.00 72 1008.4
20260506061911 12 350 0.0 0.0 0.00 0.00 0.00 78 1008.7